Date,TemperatureHighF,TemperatureAvgF,TemperatureLowF,DewpointHighF,DewpointAvgF,DewpointLowF,HumidityHigh,HumidityAvg,HumidityLow,PressureMaxIn,PressureMinIn,WindSpeedMaxMPH,WindSpeedAvgMPH,GustSpeedMaxMPH,PrecipitationSumIn
2013-1-1,78.0,70.4,63.0,65.0,61.2,58.0,91,73,56,30.19,30.04,15,6,31,0.00
2013-1-2,80.0,69.6,60.0,67.0,63.6,60.0,98,83,56,30.08,29.98,20,4,33,0.00
2013-1-3,81.0,71.7,65.0,68.0,66.3,64.0,98,84,56,30.12,30.01,70,5,167,0.00
2013-1-4,81.0,70.9,65.0,70.0,67.2,64.0,99,88,61,30.22,30.09,8,4,12,0.00
2013-1-5,75.0,68.4,65.0,69.0,66.4,64.0,98,93,79,30.24,30.15,45,5,46,0.00
2013-1-6,81.0,71.8,65.0,72.0,68.3,64.0,99,89,68,30.19,30.04,43,9,46,0.00
2013-1-7,73.0,69.0,66.0,71.0,67.8,65.0,99,96,86,30.15,30.06,10,5,15,0.00
2013-1-8,81.0,73.7,69.0,72.0,70.1,68.0,98,89,70,30.19,30.07,31,7,46,0.00
2013-1-9,80.0,75.7,72.0,72.0,70.2,69.0,97,83,72,30.27,30.15,23,10,48,0.00
2013-1-10,78.0,74.5,71.0,69.0,66.6,64.0,86,76,61,30.29,30.17,39,10,128,0.00
2013-1-11,79.0,74.0,69.0,70.0,67.6,66.0,92,80,69,30.25,30.14,33,7,45,0.00
2013-1-12,79.0,73.7,68.0,69.0,66.9,66.0,93,79,63,30.17,30.08,70,7,72,0.00
2013-1-13,80.0,73.3,68.0,68.0,65.5,63.0,94,76,61,30.12,30.06,70,8,72,0.00
2013-1-14,79.0,71.9,65.0,67.0,64.9,63.0,95,79,60,30.16,30.10,14,5,32,0.00
2013-1-15,78.0,72.1,67.0,69.0,66.1,64.0,97,81,64,30.13,30.04,18,6,46,0.00
2013-1-16,80.0,72.1,64.0,69.0,66.8,63.0,98,84,63,30.10,30.00,30,6,104,0.00
2013-1-17,80.0,70.7,61.0,70.0,65.8,55.0,98,84,68,30.08,29.96,20,8,44,0.00
2013-1-18,71.0,63.3,52.0,58.0,53.8,47.0,82,71,62,30.22,30.08,74,11,74,0.00
2013-1-19,69.0,66.3,64.0,68.0,63.5,57.0,99,91,66,30.21,30.08,12,4,39,0.00
2013-1-20,79.0,69.2,62.0,68.0,63.3,-99.9,100,89,64,30.13,30.00,12,4,18,0.00
2013-1-21,80.0,70.7,65.0,71.0,67.0,64.0,98,88,65,30.06,29.95,11,4,40,0.00
2013-1-22,75.0,66.4,61.0,64.0,59.1,53.0,98,78,59,30.20,29.99,17,9,35,0.00
2013-1-23,73.0,64.3,58.0,59.0,55.6,53.0,92,74,50,30.29,30.19,54,8,54,0.00
2013-1-24,74.0,63.6,56.0,56.0,52.7,42.0,94,70,41,30.28,30.18,10,6,52,0.00
2013-1-25,75.0,63.7,55.0,61.0,56.3,53.0,96,79,53,30.27,30.17,35,6,67,0.00
2013-1-26,78.0,65.7,55.0,62.0,57.7,52.0,98,78,46,30.24,30.15,9,4,15,0.00
2013-1-27,77.0,68.7,60.0,62.0,59.4,57.0,96,74,52,30.28,30.18,11,6,31,0.00
2013-1-28,79.0,72.7,68.0,67.0,63.2,60.0,85,72,56,30.30,30.21,14,8,41,0.00
2013-1-29,78.0,71.8,65.0,69.0,66.4,64.0,97,83,68,30.23,30.11,14,7,56,0.00
2013-1-30,79.0,73.4,68.0,67.0,64.6,63.0,85,73,63,30.12,29.95,18,10,29,0.00
2013-1-31,65.0,62.1,55.0,62.0,53.6,44.0,97,73,57,30.17,30.05,15,8,23,0.00
2013-2-1,71.0,59.8,51.0,56.0,48.8,41.0,90,66,54,30.26,30.15,15,10,25,0.00
2013-2-2,73.0,61.7,52.0,57.0,49.9,41.0,92,67,45,30.25,30.11,39,7,45,0.00
2013-2-3,72.0,61.5,54.0,56.0,49.7,-99.9,96,72,31,30.16,30.06,43,11,48,0.00
2013-2-4,73.0,59.7,48.0,58.0,48.5,-99.9,96,73,38,30.13,30.01,45,5,46,0.00
2013-2-5,78.0,65.6,54.0,63.0,58.4,53.0,98,79,46,30.07,29.99,45,6,49,0.00
2013-2-6,80.0,68.5,60.0,66.0,62.3,59.0,99,81,59,30.10,30.01,26,4,44,0.00
2013-2-7,81.0,71.2,62.0,66.0,63.7,60.0,97,78,52,30.07,29.93,22,6,47,0.00
2013-2-8,81.0,70.8,64.0,69.0,66.1,63.0,98,85,60,30.02,29.90,11,6,18,0.00
2013-2-9,78.0,69.2,62.0,66.0,62.7,60.0,99,81,58,30.16,30.01,13,8,21,0.00
2013-2-10,73.0,69.8,65.0,62.0,60.9,58.0,86,73,66,30.25,30.14,16,9,24,0.00
2013-2-11,78.0,70.2,62.0,65.0,62.9,60.0,95,78,64,30.20,30.10,14,7,21,0.00
2013-2-12,84.0,71.9,62.0,69.0,65.3,62.0,98,81,49,30.11,29.95,36,7,64,0.00
2013-2-13,85.0,74.9,66.0,71.0,68.5,65.0,98,82,56,30.00,29.88,17,8,25,0.00
2013-2-14,79.0,68.5,62.0,71.0,66.8,61.0,98,94,75,30.00,29.84,22,7,44,0.00
2013-2-15,70.0,65.3,62.0,67.0,64.1,61.0,98,95,83,30.02,29.93,12,5,45,0.00
2013-2-16,70.0,64.0,55.0,63.0,57.1,46.0,99,79,49,30.07,29.87,20,10,36,0.00
2013-2-17,57.0,50.8,44.0,47.0,31.5,-99.9,75,51,29,30.30,30.07,20,12,34,0.00
2013-2-18,67.0,57.5,46.0,56.0,44.6,34.0,75,62,48,30.31,30.20,15,9,60,0.00
2013-2-19,78.0,68.2,55.0,66.0,60.3,54.0,96,76,59,30.21,30.07,13,7,45,0.00
2013-2-20,78.0,69.3,62.0,66.0,63.6,59.0,99,83,54,30.11,30.00,25,6,66,0.00
2013-2-21,80.0,71.1,62.0,69.0,65.3,62.0,99,82,61,30.08,29.98,10,5,17,0.00
2013-2-22,80.0,73.8,67.0,70.0,68.6,65.0,95,84,70,30.09,30.01,14,9,42,0.00
2013-2-23,82.0,72.8,70.0,72.0,69.6,68.0,97,90,71,30.05,29.90,12,7,34,0.00
2013-2-24,86.0,75.9,69.0,72.0,70.1,67.0,99,83,53,29.99,29.89,10,6,16,0.00
2013-2-25,84.0,74.7,68.0,73.0,70.1,67.0,98,86,61,29.91,29.80,13,6,21,0.00
2013-2-26,84.0,76.9,72.0,72.0,70.5,68.0,96,81,62,29.88,29.79,19,10,30,0.00
2013-2-27,75.0,69.1,63.0,74.0,65.3,61.0,97,88,65,29.96,29.86,11,6,41,0.00
2013-2-28,68.0,63.4,59.0,63.0,55.1,49.0,96,75,51,30.00,29.91,13,7,21,0.00
2013-3-1,63.0,61.0,58.0,58.0,51.8,48.0,84,71,59,29.98,29.90,11,7,17,0.00
2013-3-2,64.0,57.2,52.0,50.0,43.2,36.0,75,59,44,30.03,29.95,20,11,37,0.00
2013-3-3,60.0,53.6,50.0,47.0,42.5,39.0,86,67,50,30.14,29.96,15,9,43,0.00
2013-3-4,68.0,53.1,43.0,49.0,38.6,32.0,93,61,27,30.21,30.11,16,7,26,0.00
2013-3-5,75.0,61.7,49.0,57.0,52.9,47.0,96,74,47,30.18,30.07,52,6,73,0.00
2013-3-6,75.0,63.4,52.0,62.0,52.3,34.0,97,71,35,30.09,29.94,17,10,29,0.00
2013-3-7,70.0,57.2,46.0,56.0,45.2,37.0,96,65,40,30.18,30.07,59,7,62,0.00
2013-3-8,75.0,61.0,50.0,55.0,50.3,43.0,97,72,31,30.20,30.09,37,6,83,0.00
2013-3-9,74.0,62.7,53.0,58.0,54.2,51.0,97,75,50,30.18,30.09,48,7,55,0.00
2013-3-10,74.0,68.4,58.0,60.0,56.4,53.0,94,66,50,30.16,30.06,14,9,23,0.00
2013-3-11,76.0,70.1,65.0,62.0,59.8,58.0,91,69,53,30.11,29.95,40,8,104,0.00
2013-3-12,79.0,71.5,65.0,68.0,64.5,61.0,91,78,65,29.99,29.90,16,8,89,0.00
2013-3-13,73.0,65.1,56.0,65.0,54.9,45.0,95,72,40,30.11,29.97,54,9,101,0.00
2013-3-14,70.0,59.8,52.0,55.0,46.9,40.0,96,66,37,30.20,30.08,54,12,79,0.00
2013-3-15,72.0,60.4,50.0,55.0,49.4,45.0,88,69,42,30.24,30.14,32,7,48,0.00
2013-3-16,75.0,63.7,53.0,58.0,54.2,51.0,98,74,45,30.19,30.08,48,8,62,0.00
2013-3-17,76.0,66.1,57.0,62.0,58.6,57.0,98,78,53,30.14,30.02,43,8,57,0.00
2013-3-18,79.0,70.0,62.0,70.0,64.8,61.0,98,84,64,30.07,29.95,16,7,32,0.00
2013-3-19,78.0,71.3,67.0,69.0,66.7,65.0,97,86,65,30.00,29.82,19,6,50,0.00
2013-3-20,81.0,71.5,64.0,69.0,64.6,57.0,99,80,54,29.97,29.80,18,5,41,0.00
2013-3-21,72.0,65.7,58.0,62.0,53.8,43.0,96,69,35,29.94,29.83,39,10,63,0.00
2013-3-22,75.0,66.7,55.0,69.0,59.7,53.0,96,79,58,30.00,29.89,13,6,31,0.00
2013-3-23,87.0,77.1,69.0,73.0,70.5,67.0,98,81,52,29.98,29.79,14,6,23,0.00
2013-3-24,87.0,77.9,71.0,73.0,71.4,68.0,97,81,57,29.88,29.68,24,12,40,0.00
2013-3-25,75.0,71.5,64.0,73.0,61.3,45.0,97,72,41,29.98,29.74,15,8,25,0.00
2013-3-26,64.0,59.2,52.0,47.0,41.6,37.0,66,52,39,30.20,29.98,17,13,28,0.00
2013-3-27,67.0,55.6,45.0,50.0,41.9,37.0,90,61,38,30.25,30.16,14,8,21,0.00
2013-3-28,72.0,58.9,47.0,51.0,45.3,36.0,92,64,33,30.26,30.16,11,6,18,0.00
2013-3-29,73.0,62.5,51.0,55.0,50.5,46.0,91,66,43,30.28,30.19,11,7,21,0.00
2013-3-30,74.0,64.8,54.0,57.0,53.0,49.0,96,68,42,30.25,30.15,48,6,48,0.00
2013-3-31,80.0,68.7,56.0,65.0,59.9,-99.9,98,77,54,30.18,30.03,14,7,32,0.00
2013-4-1,85.0,73.7,65.0,70.0,65.6,62.0,98,78,46,30.05,29.93,46,9,57,0.00
2013-4-2,84.0,72.1,65.0,67.0,65.5,63.0,99,81,51,30.07,29.98,46,7,53,0.00
2013-4-3,82.0,74.4,66.0,69.0,67.1,65.0,97,79,58,30.06,29.98,21,7,68,0.00
2013-4-4,84.0,74.5,68.0,72.0,69.3,67.0,97,84,66,30.04,29.90,15,8,36,0.00
2013-4-5,71.0,67.9,65.0,70.0,65.8,63.0,98,93,86,29.99,29.82,43,8,56,0.00
2013-4-6,77.0,67.2,58.0,65.0,60.8,57.0,96,80,59,30.07,29.90,35,9,53,0.00
2013-4-7,77.0,71.7,66.0,63.0,62.0,60.0,88,71,62,30.13,30.02,12,8,20,0.00
2013-4-8,80.0,71.1,60.0,65.0,61.6,58.0,97,73,46,30.12,30.04,10,5,18,0.00
2013-4-9,79.0,72.5,66.0,69.0,66.0,63.0,97,80,59,30.14,30.04,14,7,22,0.00
2013-4-10,82.0,75.3,69.0,71.0,69.3,66.0,93,81,67,30.10,29.98,14,8,31,0.00
2013-4-11,83.0,77.4,73.0,73.0,71.0,70.0,90,80,68,30.01,29.89,17,12,81,0.00
2013-4-12,86.0,79.1,76.0,76.0,73.4,70.0,94,82,64,29.94,29.85,49,11,68,0.00
2013-4-13,84.0,75.0,70.0,74.0,72.1,69.0,97,90,71,29.96,29.87,41,5,60,0.00
2013-4-14,85.0,78.1,71.0,75.0,72.7,70.0,99,84,64,29.96,29.89,14,8,30,0.00
2013-4-15,89.0,76.7,69.0,76.0,72.7,69.0,99,88,63,30.05,29.93,14,6,24,0.00
2013-4-16,84.0,76.1,70.0,76.0,72.0,70.0,99,87,71,30.12,30.02,13,6,42,0.00
2013-4-17,82.0,75.8,70.0,71.0,68.4,66.0,94,78,60,30.11,30.02,11,6,47,0.00
2013-4-18,84.0,77.7,71.0,73.0,70.2,67.0,95,78,63,30.06,29.97,13,8,44,0.00
2013-4-19,86.0,80.1,76.0,74.0,71.7,69.0,92,75,59,30.04,29.95,17,10,32,0.00
2013-4-20,89.0,77.2,72.0,75.0,71.8,67.0,98,84,49,30.08,29.95,19,6,28,0.00
2013-4-21,82.0,76.1,70.0,73.0,71.3,70.0,98,85,69,30.09,29.97,14,7,21,0.00
2013-4-22,84.0,74.0,70.0,72.0,69.7,68.0,97,87,59,30.04,29.92,48,8,66,0.00
2013-4-23,81.0,73.8,67.0,69.0,65.9,62.0,98,77,57,30.09,29.95,35,11,58,0.00
2013-4-24,81.0,74.2,65.0,66.0,63.4,60.0,95,69,55,30.13,30.03,29,7,54,0.00
2013-4-25,81.0,74.0,66.0,66.0,62.6,60.0,92,68,50,30.19,30.07,12,6,19,0.00
2013-4-26,82.0,73.3,64.0,66.0,64.4,62.0,97,74,56,30.21,30.11,15,7,22,0.00
2013-4-27,80.0,74.8,65.0,67.0,63.8,61.0,92,69,53,30.20,30.08,15,8,26,0.00
2013-4-28,81.0,75.5,71.0,66.0,61.8,-99.9,74,65,53,30.11,29.99,14,9,40,0.00
2013-4-29,82.0,75.1,67.0,71.0,67.4,63.0,96,77,61,30.02,29.93,71,10,72,0.00
2013-4-30,82.0,74.4,69.0,72.0,70.2,68.0,98,87,64,29.99,29.92,45,5,56,0.00
2013-5-1,83.0,73.7,69.0,73.0,70.2,68.0,99,89,65,29.98,29.91,40,7,65,0.00
2013-5-2,78.0,70.5,67.0,73.0,69.1,66.0,99,95,81,29.94,29.77,22,8,44,0.00
2013-5-3,85.0,73.5,67.0,71.0,69.1,67.0,99,86,57,29.81,29.67,17,6,48,0.00
2013-5-4,85.0,75.2,68.0,70.0,68.2,66.0,98,80,55,29.79,29.68,44,10,72,0.00
2013-5-5,78.0,72.1,66.0,67.0,63.7,54.0,97,76,43,29.92,29.75,21,8,72,0.00
2013-5-6,81.0,71.1,61.0,67.0,62.3,60.0,97,75,52,30.01,29.91,20,5,49,0.00
2013-5-7,82.0,71.5,61.0,67.0,61.1,58.0,95,71,46,30.05,29.97,56,11,70,0.00
2013-5-8,84.0,72.8,62.0,67.0,61.3,58.0,97,70,41,30.13,30.03,36,5,57,0.00
2013-5-9,86.0,75.2,64.0,74.0,66.9,62.0,95,77,53,30.13,30.05,34,6,57,0.00
2013-5-10,87.0,77.6,72.0,75.0,69.6,-99.9,98,80,55,30.12,30.00,12,5,34,0.00
2013-5-11,87.0,78.3,73.0,77.0,73.5,71.0,99,86,63,30.06,29.97,21,7,52,0.00
2013-5-12,88.0,76.9,71.0,75.0,70.8,-99.9,98,84,56,30.05,29.94,17,6,54,0.00
2013-5-13,84.0,76.5,71.0,72.0,69.9,66.0,99,81,56,30.08,29.98,23,7,55,0.00
2013-5-14,80.0,73.7,67.0,67.0,62.0,57.0,91,68,48,30.17,30.06,27,8,68,0.00
2013-5-15,80.0,73.0,64.0,66.0,62.2,60.0,92,69,51,30.18,30.08,39,8,45,0.00
2013-5-16,82.0,67.4,63.0,67.0,39.9,-99.9,96,69,51,30.11,30.02,11,6,47,0.00
2013-5-17,85.0,74.7,67.0,74.0,62.5,-99.9,97,82,59,30.07,30.00,43,8,52,0.00
2013-5-18,84.0,77.4,71.0,75.0,71.9,69.0,98,83,68,30.08,30.01,13,6,20,0.00
2013-5-19,85.0,78.0,70.0,72.0,69.9,67.0,98,77,56,30.08,29.98,11,6,18,0.00
2013-5-20,77.0,74.1,70.0,74.0,71.2,67.0,97,91,82,30.06,29.96,15,6,39,0.00
2013-5-21,82.0,75.1,69.0,74.0,70.4,66.0,98,85,65,30.05,29.91,13,7,22,0.00
2013-5-22,86.0,75.7,69.0,75.0,71.7,68.0,97,88,64,29.95,29.88,21,5,38,0.00
2013-5-23,90.0,79.6,72.0,76.0,72.4,67.0,99,80,47,30.00,29.89,33,6,59,0.00
2013-5-24,91.0,81.5,74.0,77.0,73.0,66.0,99,77,48,30.04,29.94,33,8,49,0.00
2013-5-25,84.0,78.9,74.0,75.0,69.1,65.0,97,73,56,30.15,30.03,15,9,28,0.00
2013-5-26,83.0,76.3,67.0,68.0,65.4,63.0,92,69,56,30.16,30.09,14,8,31,0.00
2013-5-27,83.0,76.7,69.0,72.0,69.1,64.0,94,77,67,30.14,30.06,14,10,26,0.00
2013-5-28,81.0,77.0,73.0,74.0,72.2,70.0,93,84,72,30.10,30.03,16,10,28,0.00
2013-5-29,80.0,74.7,71.0,74.0,71.3,69.0,97,89,73,30.09,30.02,32,8,45,0.00
2013-5-30,81.0,77.3,71.0,74.0,71.5,67.0,93,82,74,30.07,29.99,24,14,37,0.00
2013-5-31,82.0,77.8,74.0,75.0,73.1,71.0,96,85,74,30.06,30.00,17,11,27,0.00
2013-6-1,83.0,76.3,73.0,76.0,74.2,73.0,98,93,77,30.03,29.96,32,5,32,0.00
2013-6-2,88.0,79.2,72.0,76.0,72.6,-99.9,99,84,62,30.00,29.92,31,4,39,0.00
2013-6-3,85.0,77.7,74.0,76.0,74.4,73.0,98,89,71,30.03,29.91,12,4,32,0.00
2013-6-4,84.0,78.2,74.0,76.0,74.6,72.0,99,89,69,30.05,29.96,8,4,13,0.00
2013-6-5,83.0,79.9,78.0,77.0,75.8,74.0,91,87,79,30.02,29.90,10,6,17,0.00
2013-6-6,87.0,79.4,73.0,79.0,75.2,71.0,98,87,70,29.92,29.77,20,12,40,0.00
2013-6-7,87.0,76.9,74.0,78.0,74.2,73.0,98,91,68,29.99,29.84,13,7,22,0.00
2013-6-8,85.0,77.2,74.0,79.0,75.2,74.0,99,93,79,30.11,29.97,11,5,18,0.00
2013-6-9,85.0,80.8,75.0,77.0,74.6,73.0,97,81,67,30.12,30.04,13,8,21,0.00
2013-6-10,86.0,82.0,79.0,77.0,75.6,74.0,90,80,70,30.10,30.02,11,8,21,0.00
2013-6-11,85.0,80.5,74.0,78.0,76.6,73.0,96,88,72,30.10,30.01,12,5,25,0.00
2013-6-12,87.0,79.3,72.0,77.0,76.3,70.0,98,91,69,30.08,30.02,10,3,33,0.00
2013-6-13,86.0,79.4,76.0,77.0,75.2,73.0,99,87,66,30.06,29.95,13,4,21,0.00
2013-6-14,90.0,80.5,76.0,76.0,73.7,71.0,98,81,56,29.98,29.88,13,6,51,0.00
2013-6-15,91.0,82.0,76.0,77.0,74.3,70.0,97,79,50,30.06,29.93,17,5,57,0.00
2013-6-16,89.0,82.5,76.0,77.0,75.4,73.0,97,79,59,30.10,30.02,10,5,46,0.00
2013-6-17,89.0,83.3,77.0,77.0,75.7,74.0,95,78,62,30.09,30.01,12,6,19,0.00
2013-6-18,91.0,83.6,78.0,78.0,75.7,73.0,95,77,60,30.07,29.98,11,6,22,0.00
2013-6-19,90.0,82.9,77.0,78.0,75.9,73.0,96,79,62,30.04,29.98,12,6,53,0.00
2013-6-20,90.0,81.8,75.0,78.0,73.7,69.0,96,77,58,30.08,30.02,11,5,50,0.00
2013-6-22,88.0,85.1,80.0,75.0,73.4,72.0,83,68,59,30.09,30.03,11,8,20,0.00
2013-6-23,88.0,82.2,77.0,76.0,74.2,72.0,94,76,62,30.11,30.04,14,8,21,0.00
2013-6-24,87.0,82.1,77.0,75.0,73.7,72.0,90,75,62,30.15,30.07,13,8,22,0.00
2013-6-25,87.0,81.2,76.0,76.0,74.6,73.0,93,80,66,30.12,30.03,12,7,33,0.00
2013-6-26,89.0,81.7,77.0,77.0,75.2,73.0,96,81,60,30.07,30.00,13,6,21,0.00
2013-6-27,88.0,80.9,76.0,77.0,75.6,73.0,98,84,66,30.05,29.95,9,4,39,0.00
2013-6-28,90.0,81.1,72.0,78.0,75.4,71.0,99,84,61,29.99,29.85,11,4,18,0.00
2013-6-29,91.0,79.9,74.0,78.0,75.3,73.0,99,86,55,29.93,29.82,12,4,21,0.00
2013-6-30,88.0,78.8,74.0,77.0,74.9,72.0,97,88,64,29.94,29.84,14,7,23,0.00
2013-7-1,88.0,80.4,75.0,77.0,75.2,72.0,96,85,67,30.03,29.91,17,8,30,0.00
2013-7-2,87.0,81.5,76.0,78.0,76.1,71.0,96,84,70,30.11,29.98,14,7,22,0.00
2013-7-3,87.0,81.0,77.0,78.0,75.5,73.0,96,83,68,30.12,30.04,17,9,28,0.00
2013-7-4,87.0,81.6,75.0,76.0,75.1,73.0,97,80,66,30.16,30.07,17,9,28,0.00
2013-7-5,85.0,78.8,74.0,77.0,75.5,73.0,98,89,76,30.14,30.06,14,7,35,0.00
2013-7-6,86.0,81.4,79.0,76.0,74.5,73.0,90,79,68,30.12,30.04,16,9,33,0.00
2013-7-7,86.0,81.8,77.0,76.0,74.7,73.0,92,79,67,30.10,30.03,15,8,25,0.00
2013-7-8,88.0,80.2,76.0,75.0,72.0,-99.9,93,79,57,30.14,30.08,12,6,19,0.00
2013-7-9,84.0,79.4,75.0,75.0,73.7,72.0,95,83,68,30.14,30.05,13,5,44,0.00
2013-7-10,84.0,76.4,72.0,75.0,70.1,-99.9,96,85,72,30.09,30.00,9,5,40,0.00
2013-7-11,90.0,80.7,75.0,77.0,75.1,72.0,98,84,56,30.05,29.95,12,4,18,0.00
2013-7-12,89.0,79.6,75.0,77.0,74.8,73.0,98,86,61,29.97,29.90,12,4,22,0.00
2013-7-13,86.0,76.1,73.0,76.0,73.4,71.0,98,91,67,30.03,29.92,13,5,29,0.00
2013-7-14,88.0,77.2,72.0,75.0,73.2,72.0,98,88,61,30.10,29.99,14,6,23,0.00
2013-7-15,87.0,79.0,72.0,76.0,73.3,71.0,99,83,60,30.10,30.02,13,6,21,0.00
2013-7-16,82.0,76.6,71.0,74.0,71.8,70.0,98,85,67,30.15,30.06,20,8,40,0.00
2013-7-17,80.0,76.0,73.0,75.0,73.2,72.0,97,91,79,30.16,30.06,42,6,45,0.00
2013-7-18,85.0,76.7,72.0,76.0,73.6,71.0,98,90,74,30.13,30.07,11,6,16,0.00
2013-7-19,86.0,79.6,73.0,78.0,75.4,73.0,99,87,71,30.15,30.07,12,6,18,0.00
2013-7-20,87.0,80.3,76.0,79.0,76.9,73.0,97,89,77,30.14,30.06,30,7,57,0.00
2013-7-21,89.0,79.6,76.0,79.0,76.3,72.0,98,90,68,30.18,30.08,13,4,69,0.00
2013-7-22,90.0,81.9,75.0,77.0,75.6,73.0,98,81,58,30.18,30.09,10,5,17,0.00
2013-7-23,92.0,83.1,77.0,78.0,75.5,71.0,98,79,50,30.14,29.99,11,5,49,0.00
2013-7-24,91.0,83.0,77.0,77.0,74.4,70.0,96,76,54,30.04,29.92,20,8,69,0.00
2013-7-25,90.0,83.2,77.0,77.0,75.4,72.0,95,77,60,30.03,29.93,11,7,44,0.00
2013-7-26,90.0,81.5,78.0,78.0,76.0,73.0,95,83,61,30.03,29.95,18,7,57,0.00
2013-7-27,89.0,79.1,74.0,77.0,76.0,74.0,98,90,64,30.01,29.94,19,4,63,0.00
2013-7-28,84.0,78.2,73.0,78.0,75.4,72.0,98,91,77,30.08,29.96,11,4,64,0.00
2013-7-29,89.0,81.5,76.0,78.0,76.5,75.0,98,85,67,30.15,30.04,13,5,19,0.00
2013-7-30,88.0,82.7,75.0,79.0,77.1,73.0,96,83,67,30.18,30.10,14,7,56,0.00
2013-7-31,88.0,82.8,77.0,78.0,76.0,74.0,96,80,64,30.13,30.03,14,7,22,0.00
2013-8-1,87.0,82.0,78.0,77.0,74.6,73.0,92,78,63,30.08,29.96,14,7,58,0.00
2013-8-2,89.0,80.5,76.0,76.0,74.5,73.0,98,82,60,30.07,29.94,9,5,15,0.00
2013-8-3,85.0,78.2,71.0,78.0,74.9,70.0,97,90,74,30.14,30.04,9,4,29,0.00
2013-8-4,92.0,81.2,76.0,78.0,75.5,73.0,97,83,59,30.13,30.00,16,4,38,0.00
2013-8-5,90.0,80.7,76.0,79.0,76.3,73.0,98,87,65,30.05,29.96,13,6,20,0.00
2013-8-6,93.0,81.4,76.0,79.0,76.2,73.0,99,85,55,30.00,29.90,11,4,53,0.00
2013-8-7,89.0,82.7,77.0,78.0,76.1,75.0,99,81,64,29.98,29.92,13,6,37,0.00
2013-8-8,88.0,83.6,80.0,77.0,75.4,73.0,86,76,60,30.02,29.94,14,9,23,0.00
2013-8-9,88.0,81.8,79.0,77.0,74.5,70.0,89,79,64,30.07,29.96,14,8,24,0.00
2013-8-10,89.0,82.9,78.0,77.0,75.7,74.0,93,79,61,30.12,30.04,12,7,21,0.00
2013-8-11,90.0,84.0,79.0,77.0,76.2,75.0,91,77,63,30.13,30.06,11,7,20,0.00
2013-8-12,89.0,82.5,76.0,77.0,75.2,73.0,96,79,61,30.11,30.02,11,6,18,0.00
2013-8-13,91.0,81.9,77.0,78.0,73.0,-99.9,98,78,55,30.05,29.95,12,5,45,0.00
2013-8-14,91.0,81.8,76.0,78.0,73.2,-99.9,98,78,54,30.02,29.93,18,5,47,0.00
2013-8-15,88.0,73.2,79.0,78.0,57.6,-99.9,93,78,68,30.06,29.96,8,4,47,0.00
2013-8-16,90.0,80.5,77.0,79.0,71.6,-99.9,96,80,65,30.05,29.98,10,5,53,0.00
2013-8-17,89.0,84.0,79.0,79.0,77.6,74.0,96,81,64,30.08,30.00,13,7,38,0.00
2013-8-18,89.0,82.3,79.0,79.0,73.8,-99.9,91,78,68,30.07,29.99,15,8,25,0.00
2013-8-19,89.0,77.1,79.0,78.0,58.3,-99.9,97,80,64,30.07,29.96,13,7,28,0.00
2013-8-20,89.0,82.1,76.0,77.0,73.4,-99.9,95,78,63,30.05,29.98,14,8,21,0.00
2013-8-21,87.0,81.2,77.0,78.0,77.1,75.0,98,87,70,30.07,29.99,15,8,25,0.00
2013-8-22,89.0,82.9,76.0,78.0,76.6,74.0,96,81,67,30.06,29.95,13,7,23,0.00
2013-8-23,89.0,81.6,77.0,78.0,76.5,75.0,97,85,66,30.01,29.94,13,5,24,0.00
2013-8-24,91.0,82.6,74.0,78.0,76.1,72.0,98,81,59,30.11,29.97,12,5,36,0.00
2013-8-25,86.0,78.4,75.0,77.0,72.5,-99.9,98,85,69,30.15,30.03,10,5,44,0.00
2013-8-26,86.0,78.1,71.0,78.0,74.8,70.0,98,89,69,30.12,30.02,14,4,41,0.00
2013-8-27,84.0,75.6,73.0,76.0,73.6,72.0,99,93,67,30.05,29.99,7,4,12,0.00
2013-8-28,87.0,81.6,76.0,76.0,74.5,72.0,96,79,64,30.04,29.96,12,6,41,0.00
2013-8-29,89.0,81.1,73.0,77.0,74.7,70.0,98,81,61,30.04,29.94,11,5,17,0.00
2013-8-30,91.0,82.6,76.0,77.0,75.4,72.0,98,80,53,30.01,29.91,11,4,38,0.00
2013-8-31,89.0,80.3,74.0,78.0,74.6,72.0,97,84,58,30.00,29.92,13,5,19,0.00
2013-9-1,89.0,78.7,74.0,78.0,72.8,-99.9,99,86,60,30.01,29.94,10,3,47,0.00
2013-9-2,91.0,79.0,73.0,78.0,75.4,73.0,99,90,57,30.06,29.95,10,3,42,0.00
2013-9-3,90.0,80.1,73.0,78.0,74.7,72.0,99,84,61,30.04,29.95,10,3,33,0.00
2013-9-4,86.0,80.6,77.0,79.0,77.2,76.0,98,89,74,30.08,29.96,22,5,45,0.00
2013-9-5,90.0,82.9,78.0,78.0,77.0,75.0,97,83,64,30.08,30.01,10,6,19,0.00
2013-9-6,90.0,82.9,78.0,79.0,77.1,74.0,98,83,60,30.05,29.94,25,5,64,0.00
2013-9-7,85.0,77.6,73.0,79.0,74.9,71.0,98,91,75,29.99,29.92,19,5,55,0.00
2013-9-8,88.0,77.0,73.0,77.0,72.6,-99.9,99,89,67,29.96,29.88,8,3,14,0.00
2013-9-9,87.0,80.0,73.0,77.0,74.3,72.0,98,84,63,30.02,29.91,13,6,62,0.00
2013-9-10,86.0,80.0,75.0,77.0,74.6,72.0,97,84,70,30.06,29.97,14,7,23,0.00
2013-9-11,81.0,78.1,73.0,76.0,75.0,72.0,98,90,80,30.08,29.99,16,6,44,0.00
2013-9-12,84.0,79.0,75.0,77.0,75.7,73.0,99,90,71,30.03,29.92,7,3,12,0.00
2013-9-13,90.0,81.2,75.0,77.0,75.3,74.0,99,83,57,29.93,29.83,8,4,13,0.00
2013-9-14,90.0,82.9,76.0,78.0,75.2,72.0,99,78,56,29.99,29.85,11,5,16,0.00
2013-9-15,86.0,77.6,73.0,78.0,72.6,-99.9,98,88,75,30.07,29.95,13,4,33,0.00
2013-9-16,84.0,77.9,73.0,78.0,76.2,73.0,99,94,80,30.07,30.00,12,6,21,0.00
2013-9-17,80.0,77.5,74.0,76.0,74.7,74.0,99,91,83,30.07,29.95,11,6,17,0.00
2013-9-18,78.0,75.7,74.0,75.0,74.2,73.0,98,94,87,30.04,29.95,8,4,14,0.00
2013-9-19,87.0,79.0,73.0,77.0,74.6,72.0,99,87,70,30.04,29.95,14,6,22,0.00
2013-9-20,86.0,79.0,72.0,73.0,71.7,69.0,97,79,57,30.02,29.93,12,6,55,0.00
2013-9-21,87.0,78.9,72.0,74.0,72.7,71.0,96,81,62,29.94,29.80,10,4,41,0.00
2013-9-22,90.0,80.4,75.0,78.0,72.2,-99.9,98,80,56,29.89,29.79,12,5,22,0.00
2013-9-23,86.0,79.7,77.0,78.0,77.2,76.0,99,92,74,30.00,29.88,19,4,52,0.00
2013-9-24,91.0,80.3,74.0,80.0,75.7,72.0,99,86,62,30.00,29.90,12,6,27,0.00
2013-9-25,87.0,79.9,74.0,79.0,74.6,71.0,98,84,58,29.94,29.83,19,7,51,0.00
2013-9-26,87.0,80.1,77.0,79.0,76.9,75.0,97,90,72,29.89,29.82,16,8,87,0.00
2013-9-27,88.0,79.7,74.0,77.0,73.7,68.0,99,83,51,29.94,29.85,13,6,47,0.00
2013-9-28,86.0,78.4,73.0,76.0,73.4,71.0,98,85,64,29.98,29.89,12,6,44,0.00
2013-9-29,87.0,77.1,71.0,74.0,69.1,-99.9,98,80,59,29.99,29.90,10,5,16,0.00
2013-9-30,87.0,79.0,71.0,73.0,72.1,70.0,98,80,60,30.02,29.92,10,4,15,0.00
2013-10-1,80.0,78.9,78.0,73.0,72.1,71.0,84,78,76,30.05,30.02,7,6,13,0.00
2013-10-2,86.0,80.3,76.0,74.0,72.5,71.0,89,77,64,30.06,29.98,13,8,23,0.00
2013-10-3,86.0,80.3,76.0,75.0,73.6,72.0,94,80,65,30.07,29.96,12,6,61,0.00
2013-10-4,88.0,79.0,73.0,74.0,72.2,70.0,97,80,58,30.07,29.99,11,5,37,0.00
2013-10-5,88.0,78.8,71.0,74.0,71.9,70.0,98,80,57,30.05,29.94,15,5,51,0.00
2013-10-6,88.0,79.6,73.0,76.0,73.5,71.0,99,82,56,29.97,29.87,9,4,32,0.00
2013-10-7,89.0,77.9,73.0,76.0,73.4,72.0,98,87,58,29.91,29.81,14,6,45,0.00
2013-10-8,88.0,80.2,75.0,78.0,74.1,71.0,99,82,61,29.94,29.85,11,7,45,0.00
2013-10-9,84.0,77.0,73.0,76.0,73.1,71.0,96,87,75,29.99,29.90,27,8,49,0.00
2013-10-10,86.0,77.6,71.0,74.0,71.7,70.0,98,83,60,30.01,29.94,11,7,21,0.00
2013-10-11,87.0,76.5,69.0,72.0,69.0,67.0,98,79,54,30.01,29.94,11,6,38,0.00
2013-10-12,86.0,76.4,69.0,72.0,69.5,68.0,99,80,55,30.03,29.95,17,4,68,0.00
2013-10-13,86.0,74.7,70.0,72.0,65.9,-99.9,98,78,51,30.05,29.96,11,5,43,0.00
2013-10-14,86.0,76.3,69.0,71.0,69.3,67.0,98,80,57,30.02,29.90,17,5,45,0.00
2013-10-15,86.0,76.3,70.0,73.0,71.0,70.0,99,84,59,29.95,29.86,9,5,31,0.00
2013-10-16,86.0,75.6,70.0,72.0,70.5,69.0,99,85,59,29.95,29.88,18,4,47,0.00
2013-10-17,86.0,75.8,70.0,74.0,71.2,69.0,99,86,59,29.96,29.88,8,4,36,0.00
2013-10-18,87.0,77.6,70.0,74.0,72.2,70.0,99,84,62,29.98,29.90,10,4,40,0.00
2013-10-19,89.0,79.6,71.0,76.0,72.6,71.0,99,80,57,29.96,29.87,9,5,44,0.00
2013-10-20,90.0,79.3,75.0,78.0,73.2,-99.9,99,85,58,29.95,29.87,13,4,44,0.00
2013-10-21,89.0,80.7,74.0,77.0,75.1,73.0,99,84,64,30.00,29.89,10,4,15,0.00
2013-10-22,90.0,81.2,75.0,77.0,75.3,74.0,98,83,60,29.96,29.82,11,6,47,0.00
2013-10-23,86.0,79.2,75.0,77.0,73.5,69.0,97,83,66,29.95,29.82,13,7,19,0.00
2013-10-24,80.0,74.2,70.0,70.0,66.0,63.0,88,75,63,30.09,29.93,10,7,40,0.00
2013-10-25,82.0,72.9,67.0,68.0,64.9,63.0,92,76,52,30.14,30.07,14,8,38,0.00
2013-10-26,83.0,72.2,65.0,67.0,64.5,63.0,96,79,51,30.14,30.04,10,6,52,0.00
2013-10-27,83.0,70.5,64.0,67.0,61.1,-99.9,96,76,54,30.09,30.01,11,6,38,0.00
2013-10-28,84.0,71.8,65.0,68.0,62.8,-99.9,99,80,49,30.13,30.04,10,5,34,0.00
2013-10-29,84.0,74.0,66.0,70.0,67.2,64.0,99,81,59,30.17,30.08,13,6,23,0.00
2013-10-30,84.0,76.6,67.0,68.0,66.6,65.0,94,71,55,30.18,30.08,14,8,121,0.00
2013-10-31,84.0,77.8,73.0,72.0,69.3,65.0,88,75,63,30.11,29.99,13,8,51,0.00
2013-11-1,87.0,77.9,70.0,74.0,72.1,70.0,98,83,61,30.01,29.87,11,5,21,0.00
2013-11-2,87.0,76.6,70.0,73.0,70.7,65.0,99,83,50,29.93,29.79,13,6,21,0.00
2013-11-3,81.0,71.7,67.0,65.0,59.6,-99.9,86,68,56,30.02,29.90,18,11,28,0.00
2013-11-4,80.0,73.3,65.0,67.0,63.0,59.0,88,70,55,30.07,30.00,18,11,29,0.00
2013-11-5,81.0,77.6,75.0,70.0,67.8,64.0,77,71,64,30.08,30.01,19,14,38,0.00
2013-11-6,82.0,76.9,69.0,69.0,68.2,67.0,96,74,59,30.06,29.98,14,9,27,0.00
2013-11-7,86.0,74.6,68.0,73.0,69.4,67.0,99,85,53,30.01,29.91,9,5,13,0.00
2013-11-8,84.0,74.5,68.0,72.0,70.2,68.0,98,87,60,30.03,29.93,15,9,24,0.00
2013-11-9,77.0,73.7,73.0,72.0,68.1,-99.9,96,85,79,30.11,30.01,14,11,27,0.00
2013-11-10,83.0,76.5,71.0,72.0,70.4,69.0,96,81,69,30.12,30.04,12,8,19,0.00
2013-11-11,83.0,74.7,68.0,71.0,68.6,66.0,98,82,66,30.11,30.04,13,7,22,0.00
2013-11-12,83.0,74.4,68.0,71.0,67.9,66.0,98,81,59,30.07,29.96,10,5,18,0.00
2013-11-13,75.0,70.8,68.0,68.0,63.2,54.0,89,77,62,30.20,29.99,19,13,35,0.00
2013-11-14,76.0,70.9,67.0,60.0,57.2,54.0,67,61,53,30.23,30.13,17,12,30,0.00
2013-11-15,80.0,75.1,71.0,69.0,65.6,60.0,76,72,67,30.14,30.03,16,10,26,0.00
2013-11-16,78.0,73.9,71.0,72.0,66.1,-99.9,93,79,71,30.09,30.01,15,7,32,0.00
2013-11-17,83.0,77.0,71.0,73.0,70.6,68.0,96,80,67,30.07,30.00,13,7,19,0.00
2013-11-18,83.0,75.2,69.0,73.0,71.0,69.0,99,88,69,30.03,29.91,6,3,10,0.00
2013-11-19,84.0,75.0,71.0,74.0,71.5,70.0,98,90,66,29.93,29.85,10,4,15,0.00
2013-11-20,84.0,75.3,68.0,74.0,71.2,68.0,99,87,66,30.05,29.92,10,5,16,0.00
2013-11-21,81.0,75.2,71.0,73.0,71.6,70.0,98,88,72,30.13,30.04,11,6,21,0.00
2013-11-22,81.0,76.6,72.0,71.0,69.6,68.0,87,78,68,30.15,30.07,15,10,23,0.00
2013-11-23,81.0,74.0,70.0,71.0,66.5,-99.9,94,80,68,30.08,29.97,12,7,19,0.00
2013-11-24,81.0,72.3,67.0,70.0,67.2,63.0,99,84,64,30.14,29.98,26,9,33,0.00
2013-11-25,74.0,71.9,70.0,67.0,63.6,59.0,87,75,64,30.19,30.06,17,14,29,0.00
2013-11-26,83.0,76.5,71.0,74.0,71.7,68.0,95,85,72,30.06,29.82,16,12,28,0.00
2013-11-27,76.0,71.3,58.0,74.0,65.6,52.0,98,82,58,30.11,29.78,17,11,39,0.00
2013-11-28,73.0,60.7,48.0,59.0,52.8,46.0,93,76,51,30.25,30.11,16,10,25,0.00
2013-11-29,76.0,67.9,57.0,62.0,59.0,56.0,97,74,54,30.26,30.19,17,10,27,0.00
2013-11-30,78.0,66.2,60.0,69.0,60.0,-99.9,98,84,60,30.21,30.11,16,8,29,0.00
2013-12-1,75.0,66.9,61.0,70.0,65.7,60.0,99,95,83,30.11,29.95,12,5,20,0.00
2013-12-2,72.0,66.5,61.0,67.0,64.1,61.0,99,92,71,29.95,29.83,11,6,17,0.00
2013-12-3,78.0,68.8,61.0,65.0,62.9,60.0,99,83,55,30.00,29.90,7,4,12,0.00
2013-12-4,82.0,70.2,62.0,69.0,65.5,62.0,99,86,61,30.09,29.99,8,4,14,0.00
2013-12-5,82.0,72.5,63.0,71.0,67.7,63.0,99,85,63,30.17,30.08,12,6,18,0.00
2013-12-6,82.0,74.6,67.0,70.0,68.3,66.0,96,81,62,30.18,30.09,14,7,23,0.00
2013-12-7,82.0,70.4,64.0,72.0,65.5,-99.9,99,88,61,30.22,30.14,10,4,19,0.00
2013-12-8,82.0,75.4,67.0,70.0,68.3,67.0,96,79,62,30.21,30.12,13,7,20,0.00
2013-12-9,83.0,76.2,68.0,70.0,67.6,62.0,97,75,50,30.20,30.10,14,7,42,0.00
2013-12-10,83.0,74.8,67.0,72.0,69.9,66.0,98,85,65,30.16,30.07,10,4,42,0.00
2013-12-11,75.0,70.1,67.0,70.0,68.9,67.0,99,96,85,30.18,30.12,6,3,8,0.00
2013-12-12,78.0,69.8,67.0,69.0,68.2,67.0,99,95,73,30.19,30.13,14,6,20,0.00
2013-12-13,68.0,68.0,68.0,68.0,68.0,68.0,99,99,99,30.15,30.15,4,4,6,0.00
2013-12-20,79.0,75.7,73.0,68.0,67.3,66.0,84,75,67,30.16,30.10,11,8,33,0.00
2013-12-21,82.0,75.3,73.0,72.0,67.6,-99.9,87,79,67,30.15,30.06,14,9,24,0.00
2013-12-22,83.0,77.5,75.0,73.0,71.2,70.0,91,80,66,30.15,30.07,17,10,25,0.00
2013-12-23,83.0,76.7,71.0,73.0,71.2,69.0,95,83,68,30.17,30.10,13,8,20,0.00
2013-12-24,80.0,70.4,66.0,72.0,66.5,59.0,99,87,67,30.17,30.09,17,7,27,0.00
2013-12-25,77.0,71.5,68.0,66.0,64.0,62.0,90,77,66,30.17,30.10,15,10,24,0.00
2013-12-26,78.0,73.4,70.0,69.0,67.7,65.0,91,82,73,30.16,30.06,11,7,19,0.00
2013-12-27,81.0,73.4,67.0,71.0,68.3,66.0,98,84,69,30.19,30.09,12,7,21,0.00
2013-12-28,79.0,73.8,71.0,72.0,66.9,-99.9,92,81,74,30.17,30.03,15,10,23,0.00
2013-12-29,81.0,76.1,72.0,74.0,72.4,71.0,98,88,74,30.03,29.92,17,9,40,0.00
2013-12-30,76.0,71.1,67.0,72.0,63.6,-99.9,100,92,75,30.14,29.98,12,6,48,0.00
2013-12-31,78.0,71.0,66.0,66.0,63.4,62.0,89,76,61,30.22,30.11,18,10,43,0.00
2014-1-1,80.0,74.2,71.0,72.0,68.9,63.0,96,83,72,30.20,30.04,12,9,41,0.00
2014-1-2,83.0,74.9,68.0,71.0,68.5,67.0,98,81,58,30.04,29.86,17,8,45,0.00